Location: Kapla
(46.2483°N, 15.0094°E)
Time: 20:54:13
(UTC+00:00)

SME Rocket - Pass Details

Date: 03 March 2021
Orbit: 550 x 2652 km, 99.9° (Epoch: 21 April)

Event Time Altitude Azimuth Distance (km) Brightness Sun altitude
Rises 19:06:14 0° 14° (NNE) 5,046 7.7 -24.3°
Reaches altitude 10° 19:09:47 10° 14° (NNE) 3,736 7.1 -24.8°
Maximum altitude 19:18:07 77° 291° (WNW) 1,117 4.3 -26.2°
Drops below altitude 10° 19:23:27 10° 206° (SSW) 2,432 6.1 -27.1°
Sets 19:25:22 0° 204° (SSW) 3,196 6.8 -27.4°
